Location: Unspecified
(32.9794°N, 0.0000°E)
Time: 05:05:28
(UTC+00:00)

SL-8 R/B - Visible Passes

Search period start: 04 April 2026 00:00
Search period end: 14 April 2026 00:00
Orbit: 646 x 656 km, 48.4° (Epoch: 29 March)

Date Brightness Start Highest point End Pass type
(mag) Time Alt. Az. Time Alt. Az. Time Alt. Az.
4 Apr 5.7 03:12:55 20° N 03:12:55 20° N 03:15:25 10° NNE visible
4 Apr 6.1 04:53:33 10° NNW 04:55:23 12° N 04:57:12 10° NNE visible
5 Apr 5.9 03:38:49 14° NNW 03:39:36 15° NNW 03:42:18 10° NNE visible
6 Apr 6.5 02:26:58 14° NNE 02:26:58 14° NNE 02:27:48 10° NNE visible
6 Apr 6.2 04:05:51 10° NNW 04:07:41 12° N 04:09:32 10° NNE visible
7 Apr 6.2 02:52:50 15° N 02:52:50 15° N 02:54:42 10° NNE visible
7 Apr 6.2 04:33:51 10° NNW 04:35:50 12° N 04:37:50 10° NNE visible
8 Apr 6.2 03:18:41 11° NNW 03:20:00 12° N 03:21:51 10° NNE visible
8 Apr 6.2 05:00:56 10° NNW 05:03:53 16° NNE 05:06:51 10° NE visible
9 Apr 6.7 02:06:50 11° NNE 02:06:50 11° NNE 02:07:03 10° NNE visible
9 Apr 6.3 03:46:11 10° NNW 03:48:08 12° N 03:50:05 10° NNE visible
10 Apr 6.4 02:32:43 12° N 02:32:43 12° N 02:34:11 10° NNE visible
10 Apr 6.2 04:13:18 10° NNW 04:16:12 16° NNE 04:19:06 10° NE visible
11 Apr 6.4 02:58:38 10° NNW 03:00:25 12° N 03:02:20 10° NNE visible
11 Apr 5.8 04:40:10 10° NNW 04:44:04 25° NNE 04:47:58 10° E visible
12 Apr 6.3 03:25:40 10° NNW 03:28:30 16° NNE 03:31:20 10° NE visible
12 Apr 4.7 05:07:06 10° NW 05:11:40 48° NE 05:16:14 10° ESE visible
13 Apr 6.6 02:12:55 12° N 02:12:55 12° N 02:14:35 10° NNE visible
13 Apr 5.8 03:52:32 10° NNW 03:56:22 24° NNE 04:00:13 10° E visible
